When you browse on this site, cookies collect data to enhance your experience and personalize the content and advertising you see.
Visit our Privacy Policy to learn more. By continuing to use the site, you agree to this use of cookies and data.
  • în România
  • Lista ţărilor
  • Pe 7 zile
  • Temperatura apei
  • Meteo pe hartă
  • Widget-uri
  • user-avatar
    Intrare

    Meteo pe oră la Ghanzi

    Astăzi, 29 Mai, Vineri

    Timp Temperatura Precipitaţii Vânt Presiune Umiditate
    00:00 +30°C° 0 mm 4 m/s 715 mmHg 19%
    01:00 +29°C° 0 mm 4 m/s 715 mmHg 20%
    02:00 +28°C° 0 mm 4 m/s 715 mmHg 21%
    03:00 +28°C° 0 mm 4 m/s 715 mmHg 22%
    04:00 +27°C° 0 mm 4 m/s 714 mmHg 23%
    05:00 +28°C° 0 mm 5 m/s 715 mmHg 21%
    06:00 +30°C° 0 mm 6 m/s 716 mmHg 19%
    07:00 +32°C° 0 mm 7 m/s 717 mmHg 16%
    08:00 +34°C° 0 mm 7 m/s 717 mmHg 15%
    09:00 +36°C° 0 mm 7 m/s 717 mmHg 13%
    10:00 +39°C° 0 mm 6 m/s 717 mmHg 12%
    11:00 +40°C° 0 mm 5 m/s 717 mmHg 11%
    12:00 +40°C° 0 mm 4 m/s 716 mmHg 11%
    13:00 +40°C° 0 mm 3 m/s 716 mmHg 11%
    14:00 +40°C° 0 mm 2 m/s 715 mmHg 10%
    15:00 +41°C° 0 mm 2 m/s 715 mmHg 10%
    16:00 +41°C° 0 mm 1 m/s 714 mmHg 10%
    17:00 +39°C° 0 mm 2 m/s 714 mmHg 11%
    18:00 +37°C° 0 mm 3 m/s 714 mmHg 13%
    19:00 +36°C° 0 mm 4 m/s 714 mmHg 14%
    20:00 +35°C° 0 mm 4 m/s 714 mmHg 14%
    21:00 +34°C° 0 mm 4 m/s 714 mmHg 15%
    22:00 +33°C° 0 mm 4 m/s 714 mmHg 16%
    23:00 +32°C° 0 mm 4 m/s 714 mmHg 17%

    Mâine, 30 Mai, Sâmbătă

    Timp Temperatura Precipitaţii Vânt Presiune Umiditate
    00:00 +30°C° 0 mm 4 m/s 714 mmHg 18%
    01:00 +30°C° 0 mm 4 m/s 714 mmHg 19%
    02:00 +29°C° 0 mm 3 m/s 714 mmHg 21%
    03:00 +28°C° 0 mm 3 m/s 714 mmHg 22%
    04:00 +27°C° 0 mm 3 m/s 714 mmHg 24%
    05:00 +28°C° 0 mm 4 m/s 715 mmHg 22%
    06:00 +30°C° 0 mm 4 m/s 716 mmHg 20%
    07:00 +32°C° 0 mm 5 m/s 716 mmHg 19%
    08:00 +34°C° 0 mm 6 m/s 716 mmHg 17%
    09:00 +36°C° 0 mm 6 m/s 717 mmHg 15%
    10:00 +39°C° 0 mm 7 m/s 717 mmHg 13%
    11:00 +40°C° 0 mm 5 m/s 717 mmHg 12%
    12:00 +41°C° 0 mm 4 m/s 716 mmHg 11%
    13:00 +42°C° 0 mm 3 m/s 715 mmHg 11%
    14:00 +41°C° 0 mm 2 m/s 715 mmHg 11%
    15:00 +41°C° 0 mm 1 m/s 714 mmHg 11%
    16:00 +41°C° 0 mm 1 m/s 714 mmHg 10%
    17:00 +39°C° 0 mm 1 m/s 714 mmHg 12%
    18:00 +37°C° 0 mm 2 m/s 714 mmHg 13%
    19:00 +35°C° 0 mm 2 m/s 714 mmHg 14%
    20:00 +35°C° 0 mm 3 m/s 714 mmHg 15%
    21:00 +35°C° 0 mm 3 m/s 714 mmHg 15%
    22:00 +34°C° 0 mm 4 m/s 715 mmHg 16%
    23:00 +33°C° 0 mm 4 m/s 714 mmHg 17%

    Poimâine, 31 Mai, Duminică

    Timp Temperatura Precipitaţii Vânt Presiune Umiditate
    00:00 +31°C° 0 mm 3 m/s 714 mmHg 18%
    01:00 +30°C° 0 mm 3 m/s 714 mmHg 20%
    02:00 +29°C° 0 mm 3 m/s 714 mmHg 21%
    03:00 +28°C° 0 mm 2 m/s 714 mmHg 23%
    04:00 +27°C° 0 mm 2 m/s 714 mmHg 24%
    05:00 +29°C° 0 mm 3 m/s 714 mmHg 22%
    06:00 +30°C° 0 mm 4 m/s 715 mmHg 19%
    07:00 +33°C° 0 mm 4 m/s 716 mmHg 17%
    08:00 +35°C° 0 mm 5 m/s 716 mmHg 15%
    09:00 +39°C° 0 mm 5 m/s 716 mmHg 13%
    10:00 +41°C° 0 mm 6 m/s 717 mmHg 11%
    11:00 +42°C° 0 mm 5 m/s 716 mmHg 11%
    12:00 +43°C° 0 mm 5 m/s 715 mmHg 10%
    13:00 +44°C° 0 mm 4 m/s 715 mmHg 9%
    14:00 +44°C° 0 mm 3 m/s 714 mmHg 9%
    15:00 +43°C° 0 mm 2 m/s 714 mmHg 9%
    16:00 +43°C° 0 mm 2 m/s 713 mmHg 9%
    17:00 +41°C° 0 mm 2 m/s 713 mmHg 10%
    18:00 +39°C° 0 mm 2 m/s 713 mmHg 12%
    19:00 +37°C° 0 mm 2 m/s 713 mmHg 13%
    20:00 +36°C° 0 mm 2 m/s 714 mmHg 13%
    21:00 +35°C° 0 mm 2 m/s 714 mmHg 14%
    22:00 +35°C° 0 mm 2 m/s 714 mmHg 15%
    23:00 +34°C° 0 mm 2 m/s 714 mmHg 16%

    1 Iunie, Luni

    Timp Temperatura Precipitaţii Vânt Presiune Umiditate
    00:00 +32°C° 0 mm 2 m/s 713 mmHg 17%
    01:00 +31°C° 0 mm 2 m/s 713 mmHg 17%
    02:00 +31°C° 0 mm 1 m/s 713 mmHg 19%
    03:00 +30°C° 0 mm 1 m/s 713 mmHg 20%
    04:00 +29°C° 0 mm 1 m/s 713 mmHg 21%
    05:00 +31°C° 0 mm 2 m/s 713 mmHg 19%
    06:00 +34°C° 0 mm 3 m/s 714 mmHg 17%
    07:00 +36°C° 0 mm 4 m/s 715 mmHg 14%
    08:00 +38°C° 0 mm 4 m/s 715 mmHg 13%
    09:00 +41°C° 0 mm 4 m/s 715 mmHg 11%
    10:00 +43°C° 0 mm 4 m/s 715 mmHg 10%
    11:00 +44°C° 0 mm 3 m/s 715 mmHg 9%
    12:00 +45°C° 0 mm 3 m/s 714 mmHg 9%
    13:00 +46°C° 0 mm 3 m/s 713 mmHg 8%
    14:00 +46°C° 0 mm 3 m/s 713 mmHg 8%
    15:00 +47°C° 0 mm 4 m/s 712 mmHg 8%
    16:00 +47°C° 0 mm 4 m/s 712 mmHg 8%
    17:00 +44°C° 0 mm 4 m/s 712 mmHg 9%
    18:00 +42°C° 0 mm 3 m/s 712 mmHg 10%
    19:00 +39°C° 0 mm 3 m/s 712 mmHg 12%
    20:00 +38°C° 0 mm 3 m/s 712 mmHg 12%
    21:00 +38°C° 0 mm 4 m/s 712 mmHg 13%
    22:00 +37°C° 0 mm 5 m/s 712 mmHg 13%
    23:00 +36°C° 0 mm 4 m/s 712 mmHg 15%

    2 Iunie, Marţi

    Timp Temperatura Precipitaţii Vânt Presiune Umiditate
    00:00 +34°C° 0 mm 4 m/s 712 mmHg 16%
    01:00 +33°C° 0 mm 3 m/s 712 mmHg 18%
    02:00 +31°C° 0 mm 3 m/s 712 mmHg 19%
    03:00 +30°C° 0 mm 4 m/s 712 mmHg 20%
    04:00 +30°C° 0 mm 4 m/s 712 mmHg 20%
    05:00 +32°C° 0 mm 5 m/s 713 mmHg 19%
    06:00 +33°C° 0 mm 6 m/s 713 mmHg 18%
    07:00 +34°C° 0 mm 7 m/s 714 mmHg 16%
    08:00 +38°C° 0 mm 6 m/s 714 mmHg 15%
    09:00 +40°C° 0 mm 6 m/s 714 mmHg 13%
    10:00 +42°C° 0 mm 6 m/s 714 mmHg 11%
    11:00 +43°C° 0 mm 4 m/s 713 mmHg 10%
    12:00 +44°C° 0 mm 3 m/s 713 mmHg 9%
    13:00 +44°C° 0 mm 1 m/s 712 mmHg 9%
    14:00 +44°C° 0 mm 1 m/s 712 mmHg 8%
    15:00 +44°C° 0 mm 1 m/s 711 mmHg 8%
    16:00 +44°C° 0 mm 1 m/s 710 mmHg 8%
    17:00 +42°C° 0 mm 2 m/s 710 mmHg 9%
    18:00 +40°C° 0 mm 2 m/s 710 mmHg 10%
    19:00 +37°C° 0 mm 2 m/s 710 mmHg 12%
    20:00 +37°C° 0 mm 3 m/s 711 mmHg 12%
    21:00 +37°C° 0 mm 4 m/s 711 mmHg 13%
    22:00 +37°C° 0 mm 5 m/s 711 mmHg 14%
    23:00 +36°C° 0 mm 4 m/s 711 mmHg 15%

    3 Iunie, Miercuri

    Timp Temperatura Precipitaţii Vânt Presiune Umiditate
    00:00 +36°C° 0 mm 3 m/s 711 mmHg 15%
    01:00 +35°C° 0 mm 2 m/s 710 mmHg 16%
    02:00 +34°C° 0 mm 2 m/s 710 mmHg 17%
    03:00 +31°C° 0 mm 1 m/s 710 mmHg 18%
    04:00 +30°C° 0 mm 1 m/s 710 mmHg 19%
    05:00 +32°C° 0 mm 2 m/s 711 mmHg 16%
    06:00 +35°C° 0 mm 3 m/s 711 mmHg 14%
    07:00 +37°C° 0 mm 3 m/s 711 mmHg 12%
    08:00 +40°C° 0 mm 4 m/s 712 mmHg 10%
    09:00 +42°C° 0 mm 4 m/s 712 mmHg 9%
    10:00 +44°C° 0 mm 4 m/s 712 mmHg 8%
    11:00 +45°C° 0 mm 4 m/s 711 mmHg 7%
    12:00 +46°C° 0 mm 3 m/s 711 mmHg 7%
    13:00 +47°C° 0 mm 3 m/s 710 mmHg 7%
    14:00 +47°C° 0 mm 4 m/s 710 mmHg 7%
    15:00 +47°C° 0 mm 4 m/s 710 mmHg 7%
    16:00 +47°C° 0 mm 5 m/s 709 mmHg 7%
    17:00 +44°C° 0 mm 4 m/s 709 mmHg 9%
    18:00 +42°C° 0 mm 4 m/s 710 mmHg 10%
    19:00 +39°C° 0 mm 3 m/s 710 mmHg 11%
    20:00 +38°C° 0 mm 4 m/s 711 mmHg 13%
    21:00 +37°C° 0 mm 5 m/s 711 mmHg 14%
    22:00 +36°C° 0 mm 6 m/s 712 mmHg 16%
    23:00 +35°C° 0 mm 7 m/s 712 mmHg 18%
    Arată mai mult